Orbital Elements at Epoch 2459200.5 (2020-Dec-17.0) TDB
Reference: JPL 23 (heliocentric ecliptic J2000)
Element | Value | Uncertainty (1-sigma) | Units |
e | .1379467495446848 | 5.1036e-08 | |
a | 2.353089004319799 | 1.1882e-08 | au |
q | 2.028488024784544 | 1.1872e-07 | au |
i | 10.92074812950463 | 6.0368e-06 | deg |
node | 54.2351130160228 | 2.6131e-05 | deg |
peri | 2.983772300328075 | 3.2812e-05 | deg |
M | 20.39065619860212 | 1.8623e-05 | deg |
tp | 2459125.823378764942 (2020-Oct-03.32337877) | 6.8182e-05 | TDB |
period | 1318.426605930607 3.61 | 9.9862e-06 2.734e-08 | d yr |
n | .2730527420947298 | 2.0682e-09 | deg/d |
Q | 2.677689983855055 | 1.3521e-08 | au |
|
| | Orbit Determination Parameters
Additional Information
|